This is the latest recevied weather packets stored in our database for station/object OK3MS-5. If no packets are shown the sender has not sent any weather packets the latest 10 day(s).
| Time | Temp. | Humidity | Pressure | Rain* | Wind** | Luminosity | Snow |
|---|---|---|---|---|---|---|---|
| 1777410003 | 8.89° C | 59% | 1021.1 hPa | 0 mm | - | 0 W/m² | - |
| 1777409705 | 8.33° C | 59% | 1021.2 hPa | 0 mm | - | 0 W/m² | - |
| 1777409408 | 8.33° C | 61% | 1021.1 hPa | 0 mm | - | 0 W/m² | - |
| 1777409103 | 8.89° C | 60% | 1021 hPa | 0 mm | - | 0 W/m² | - |
| 1777408804 | 9.44° C | 58% | 1021 hPa | 0 mm | - | 0 W/m² | - |
| 1777408503 | 10° C | 55% | 1020.7 hPa | 0 mm | - | 0 W/m² | - |
| 1777408204 | 10° C | 54% | 1020.6 hPa | 0 mm | - | 0 W/m² | - |
| 1777407902 | 10° C | 55% | 1020.5 hPa | 0 mm | - | 0 W/m² | - |
| 1777407603 | 10° C | 54% | 1020.5 hPa | 0 mm | - | 0 W/m² | - |
| 1777407302 | 10.56° C | 54% | 1020.3 hPa | 0 mm | - | 0 W/m² | - |
| 1777407002 | 10.56° C | 53% | 1020.4 hPa | 0 mm | - | 0 W/m² | - |
| 1777406704 | 10.56° C | 53% | 1020.3 hPa | 0 mm | - | 0 W/m² | - |
| 1777406403 | 10.56° C | 54% | 1020.3 hPa | 0 mm | - | 0 W/m² | - |
| 1777406107 | 10.56° C | 55% | 1020.3 hPa | 0 mm | - | 0 W/m² | - |
| 1777405803 | 11.11° C | 52% | 1020.2 hPa | 0 mm | - | 0 W/m² | - |
| 1777405510 | 11.11° C | 51% | 1020 hPa | 0 mm | - | 0 W/m² | - |
| 1777405203 | 11.67° C | 51% | 1019.9 hPa | 0 mm | - | 0 W/m² | - |
| 1777404904 | 11.11° C | 51% | 1019.9 hPa | 0 mm | - | 0 W/m² | - |
| 1777404604 | 11.11° C | 52% | 1019.9 hPa | 0 mm | - | 0 W/m² | - |
| 1777404309 | 11.11° C | 52% | 1019.9 hPa | 0 mm | - | 0 W/m² | - |
| 1777404003 | 10.56° C | 54% | 1019.8 hPa | 0 mm | - | 0 W/m² | - |
| 1777403704 | 11.11° C | 53% | 1019.6 hPa | 0 mm | - | 0 W/m² | - |
| 1777403403 | 11.11° C | 53% | 1019.6 hPa | 0 mm | - | 0 W/m² | - |
| 1777403104 | 11.11° C | 52% | 1019.6 hPa | 0 mm | - | 0 W/m² | - |
| 1777402803 | 11.11° C | 52% | 1019.6 hPa | 0 mm | - | 0 W/m² | - |
* Rain latest hour (hover to see other rain measurements)
** Current wind speed in m/s (hover to see current wind gust speed)